Weather History for KEST - March, 2012

Change the Weather History Date:

Saturday, March 17, 2012

  Actual Average Record
Temperature  
Mean Temperature 67 °F 33 °F  
Max Temperature 79 °F 42 °F 79 °F (2012)
Min Temperature 54 °F 24 °F -4 °F (1993)
Degree Days  
Heating Degree Days 0 32  
Month to date heating degree days 398 605  
Since 1 July heating degree days 5491 6520  
Cooling Degree Days 2 0  
Month to date cooling degree days 2 0  
Year to date cooling degree days 2 0  
Growing Degree Days 16 (Base 50)    
Moisture  
Dew Point 58 °F    
Average Humidity 73    
Maximum Humidity 100    
Minimum Humidity 45    
Precipitation  
Precipitation 0.00 in 0.06 in 0.50 in (1956)
Month to date precipitation 0.36 0.64  
Year to date precipitation 2.28  
Sea Level Pressure  
Sea Level Pressure 29.76 in    
Wind  
Wind Speed 18 mph (South)    
Max Wind Speed 31 mph    
Max Gust Speed 37 mph    
Visibility 7 miles    
Events      
T = Trace of Precipitation, MM = Missing Value Source: NWS Daily Summary

Daily Weather History Graph

Daily Weather History Graph

Search for Another Location

Airport or City:

Trip Planner

Search our weather history database for the weather conditions in past years. The results will help you decide how hot, cold, wet, or windy it might be!

Date:

Astronomy

Mar. 17, 2012 Rise Set
Actual Time 7:26 AM CDT 7:28 PM CDT
Civil Twilight 6:58 AM CDT 7:56 PM CDT
Nautical Twilight 6:24 AM CDT 8:30 PM CDT
Astronomical Twilight 5:51 AM CDT 9:04 PM CDT
Moon 4:36 AM CDT (3/17) 2:46 PM CDT (3/17)
Length of Visible Light 12h 58m
Length of Day
12h 01m
Waning Crescent, 23% of the Moon is Illuminated
Mar 17
Waning Crescent
Mar 22
New
Mar 30
First Quarter
Apr 6
Full
Apr 13
Last Quarter

Hourly Weather History & Observations

Time (CDT) Temp. Dew Point Humidity Pressure Visibility Wind Dir Wind Speed Gust Speed Precip Events Conditions
12:52 AM 57.0 °F 54.0 °F 89% 29.79 in 6.0 mi South 11.5 mph - N/A   Clear
1:52 AM 55.9 °F 54.0 °F 93% 29.78 in 6.0 mi South 10.4 mph - N/A   Clear
2:52 AM 55.9 °F 54.0 °F 93% 29.78 in 6.0 mi South 11.5 mph - N/A   Clear
3:52 AM 54.0 °F 53.1 °F 97% 29.77 in 5.0 mi South 9.2 mph - N/A   Clear
4:52 AM 55.0 °F 54.0 °F 96% 29.76 in 5.0 mi South 10.4 mph - N/A   Clear
5:52 AM 55.9 °F 55.0 °F 97% 29.76 in 5.0 mi South 16.1 mph - N/A   Clear
6:52 AM 57.0 °F 55.9 °F 96% 29.78 in 5.0 mi South 13.8 mph - N/A   Clear
7:52 AM 57.0 °F 55.9 °F 96% 29.78 in 2.5 mi South 13.8 mph - N/A   Clear
8:33 AM 59.0 °F 57.2 °F 94% 29.80 in 3.0 mi South 13.8 mph - N/A   Clear
8:41 AM 59.0 °F 57.2 °F 94% 29.80 in 3.0 mi South 12.7 mph - N/A   Scattered Clouds
8:50 AM 60.8 °F 57.2 °F 88% 29.80 in 3.0 mi South 13.8 mph - N/A   Mostly Cloudy
8:52 AM 60.1 °F 57.9 °F 93% 29.80 in 3.0 mi South 13.8 mph - N/A   Mostly Cloudy
9:52 AM 62.1 °F 59.0 °F 90% 29.80 in 5.0 mi South 18.4 mph - N/A   Overcast
10:52 AM 64.0 °F 61.0 °F 90% 29.79 in 6.0 mi South 18.4 mph 25.3 mph N/A   Overcast
11:52 AM 66.0 °F 61.0 °F 84% 29.79 in 7.0 mi South 18.4 mph - N/A   Overcast
12:50 PM 71.6 °F 60.8 °F 69% 29.78 in 10.0 mi South 24.2 mph 29.9 mph N/A   Overcast
12:52 PM 72.0 °F 61.0 °F 68% 29.77 in 10.0 mi South 19.6 mph 29.9 mph N/A   Overcast
1:03 PM 71.6 °F 60.8 °F 69% 29.78 in 10.0 mi South 18.4 mph 27.6 mph N/A   Overcast
1:36 PM 73.4 °F 60.8 °F 65% 29.77 in 10.0 mi South 20.7 mph - N/A   Mostly Cloudy
1:52 PM 75.0 °F 61.0 °F 62% 29.75 in 10.0 mi South 21.9 mph 28.8 mph N/A   Mostly Cloudy
2:52 PM 75.0 °F 60.1 °F 60% 29.73 in 10.0 mi South 27.6 mph 35.7 mph N/A   Mostly Cloudy
3:52 PM 77.0 °F 59.0 °F 54% 29.72 in 10.0 mi South 26.5 mph 33.4 mph N/A   Mostly Cloudy
4:52 PM 75.9 °F 57.9 °F 54% 29.70 in 10.0 mi South 20.7 mph 28.8 mph N/A   Scattered Clouds
5:52 PM 78.1 °F 55.9 °F 46% 29.69 in 10.0 mi South 27.6 mph 33.4 mph N/A   Clear
6:52 PM 75.0 °F 55.9 °F 51% 29.69 in 10.0 mi South 18.4 mph 24.2 mph N/A   Clear
7:52 PM 72.0 °F 57.0 °F 59% 29.70 in 10.0 mi SSE 19.6 mph - N/A   Clear
8:52 PM 70.0 °F 57.9 °F 65% 29.72 in 10.0 mi South 20.7 mph 26.5 mph N/A   Clear
9:52 PM 66.9 °F 57.0 °F 70% 29.73 in 10.0 mi South 16.1 mph - N/A   Clear
10:52 PM 66.0 °F 57.0 °F 73% 29.73 in 10.0 mi South 17.3 mph - N/A   Clear
11:52 PM 64.9 °F 57.0 °F 75% 29.74 in 10.0 mi South 19.6 mph - N/A   Clear